[[{"header":{"parameterUnit":"m.s-1","parameterCategory":1,"la1":30.2991,"la2":30.254,"lo1":-89.0895,"lo2":-89.0444,"dy":0.0017,"dx":0.0017,"nx":28,"ny":28,"refTime":"2023-09-05T09:00:00:Z","depth":0,"parameterNumber":2,"parameterNumberName":"U-component_of_WINDS"},"data":[0,0,0,0,0,0,0,0,0,0,0,0,0,0,0,0,0,0,0,0,0,0,0,0,0,0,0,0,0,0,0,0,0,0,0,0,0,0,0,0,0,0,0,0,0,0,0,0,0,0,0,0,0,0,0,0,0,0,-4.1615,-4.1616,0,-4.1756,-4.1757,-4.1759,-4.1743,-4.1741,-4.1739,-4.1737,-4.1881,-4.1887,-4.1892,0,0,0,0,0,0,0,0,0,0,0,0,0,-4.1334,-4.134,-4.1615,-4.1617,-4.1618,-4.1755,-4.1757,-4.1759,-4.1744,-4.1741,-4.1738,-4.1736,-4.1879,-4.1886,-4.1893,0,0,0,0,0,0,0,0,0,0,0,0,0,-4.1464,-4.1341,-4.1614,-4.1627,-4.163,-4.1755,-4.1757,-4.176,-4.1744,-4.1741,-4.1738,-4.1734,-4.1877,-4.1885,-4.1894,-4.2016,0,0,-4.1921,-4.1925,0,0,0,0,0,0,0,0,-4.1456,-4.1474,-4.1624,-4.1626,-4.163,-4.1728,-4.1711,-4.1846,-4.1745,-4.1701,-4.1737,-4.1733,-4.1833,-4.1845,-4.1879,-4.2022,-4.2029,-4.1922,-4.1927,-4.1931,-4.1934,0,0,0,0,0,0,0,-4.1448,-4.1468,-4.167,-4.1626,-4.1629,-4.1626,-4.1641,-4.1737,-4.1784,-4.1704,-4.1704,-4.172,-4.1834,-4.187,-4.1882,-4.2031,-4.1922,-4.1929,-4.1935,-4.1938,-4.2283,-4.2286,0,0,0,0,0,0,-4.1435,-4.1461,-4.1666,-4.1675,-4.1533,-4.1634,-4.1651,-4.17,-4.1783,-4.1792,-4.1723,-4.1719,-4.1857,-4.1872,-4.1887,-4.2035,-4.1931,-4.1939,-4.1944,-4.2279,-4.2284,-4.2288,0,0,0,0,0,0,-4.1429,-4.1454,-4.166,-4.1568,-4.1594,-4.1643,-4.1698,-4.1705,-4.1741,-4.1797,-4.1805,-4.1752,-4.1855,-4.1875,-4.1984,-4.204,-4.1943,-4.1951,-4.2275,-4.228,-4.2286,-4.2332,0,0,0,0,0,0,-4.1421,-4.1452,-4.1498,-4.1569,-4.1599,-4.1754,-4.1702,-4.171,-4.1756,-4.1753,-4.1826,-4.1835,-4.1854,-4.1971,-4.1993,-4.205,-4.1958,-4.227,-4.2277,-4.2284,-4.2326,-4.2338,-4.235,0,0,0,0,0,-4.1411,-4.1505,-4.15,-4.1525,-4.1657,-4.1758,-4.1775,-4.1794,-4.1761,-4.1808,-4.1844,-4.1832,-4.2031,-4.1982,-4.2007,-4.2068,-4.2266,-4.2275,-4.2283,-4.232,-4.2336,-4.2349,0,0,0,0,0,0,-4.1439,-4.1514,-4.151,-4.1629,-4.1687,-4.1755,-4.1814,-4.1811,-4.1879,-4.1873,-4.1895,-4.1911,-4.2022,-4.2056,-4.2001,-4.2191,-4.2144,-4.2158,-4.2164,-4.2179,-4.2191,-4.2179,-4.1966,0,0,0,0,0,-4.1459,-4.1534,-4.1596,-4.1695,-4.1725,-4.1765,-4.1809,-4.182,-4.1881,-4.1905,-4.1949,-4.2009,-4.2085,-4.2134,-4.2207,-4.2332,-4.2347,-4.2386,-4.2398,-4.2408,-4.2419,-4.2487,-4.2505,-4.2316,-4.2316,-4.2316,0,0,-4.15,-4.1551,-4.1597,-4.1702,-4.1748,-4.1826,-4.1785,-4.1869,-4.1927,-4.1918,-4.2023,-4.2059,-4.2127,-4.2245,-4.2299,-4.2277,-4.2475,-4.2419,-4.2426,-4.2432,-4.2498,-4.2516,-4.2532,-4.2322,-4.2321,-4.232,0,0,-4.1615,-4.1662,-4.1749,-4.1797,-4.1868,-4.1895,-4.1916,-4.1985,-4.2008,-4.2115,-4.211,-4.218,-4.231,-4.236,-4.2401,-4.2539,-4.2531,-4.2563,-4.2624,-4.2691,-4.2706,-4.2719,-4.2767,-4.2785,-4.2574,-4.2574,-4.2574,0,-4.1658,-4.1774,-4.1795,-4.188,-4.1926,-4.1923,-4.2013,-4.2058,-4.2149,-4.2182,-4.2157,-4.2321,-4.2367,-4.2496,-4.253,-4.2564,-4.2589,-4.2552,-4.2702,-4.2716,-4.2728,-4.2775,-4.2793,-4.2577,-4.2577,-4.2577,-4.2576,0,-4.1823,-4.1904,-4.1966,-4.2055,-4.2109,-4.2195,-4.223,-4.2283,-4.229,-4.232,-4.2429,-4.2485,-4.2569,-4.2602,-4.2609,-4.2733,-4.2717,-4.2697,-4.265,-4.2749,-4.2793,-4.2811,-4.2582,-4.2581,-4.258,-4.2579,0,0,-4.1955,-4.2056,-4.2079,-4.2119,-4.2199,-4.2262,-4.235,-4.2433,-4.2477,-4.2542,-4.2615,-4.2727,-4.271,-4.2757,-4.2771,-4.283,-4.2935,-4.2803,-4.2805,-4.2824,-4.3075,-4.3088,-4.3108,-4.2931,-4.2935,-4.2938,-4.3069,0,-4.2077,-4.2231,-4.2254,-4.239,-4.2465,-4.2465,-4.2542,-4.2599,-4.263,-4.2699,-4.2734,-4.2812,-4.2784,-4.2813,-4.2872,-4.291,-4.2985,-4.2901,-4.3,-4.3003,-4.298,-4.3131,-4.3145,-4.3265,-4.3086,-4.3089,-4.3091,0,-4.2238,-4.2307,-4.2451,-4.2521,-4.2554,-4.2622,-4.2701,-4.2767,-4.2833,-4.2852,-4.2907,-4.2914,-4.3005,-4.2957,-4.3084,-4.3026,-4.3069,-4.3094,-4.3099,-4.3107,-4.3051,-4.3141,-4.3304,-4.3322,-4.3118,-4.3116,-4.3114,0,-4.2319,-4.2448,-4.2551,-4.2586,-4.2671,-4.2719,-4.2757,-4.282,-4.2869,-4.2939,-4.2971,-4.305,-4.3093,-4.3155,-4.3184,-4.3146,-4.3309,-4.3263,-4.3327,-4.3326,-4.3359,-4.3356,-4.3529,-4.339,-4.3389,-4.3389,-4.3389,0,-4.2451,-4.2539,-4.2588,-4.2651,-4.275,-4.2777,-4.2874,-4.291,-4.2967,-4.3037,-4.3044,-4.311,-4.3145,-4.3217,-4.324,-4.3342,-4.3362,-4.3379,-4.3384,-4.3378,-4.3375,-4.3404,-4.3395,-4.3394,-4.3393,-4.3392,-4.3391,0,-4.2557,-4.2593,-4.2705,-4.2778,-4.2798,-4.2868,-4.293,-4.2992,-4.3024,-4.3113,-4.3136,-4.3186,-4.3271,-4.3307,-4.3411,-4.3427,-4.3544,-4.3543,-4.3521,-4.3522,-4.3583,-4.3576,-4.3779,-4.3807,-4.3651,-4.3652,-4.3654,0,-4.2637,-4.2705,-4.2785,-4.2833,-4.2872,-4.2949,-4.3,-4.303,-4.3082,-4.3164,-4.3216,-4.3302,-4.3371,-4.3508,-4.3554,-4.3634,-4.3635,-4.3701,-4.3647,-4.3638,-4.3634,-4.3629,-4.3636,-4.3709,-4.3711,-4.3712,-4.3713,0,-4.2776,-4.2792,-4.2864,-4.2944,-4.3004,-4.3068,-4.3131,-4.317,-4.321,-4.3269,-4.3356,-4.3411,-4.3518,-4.3603,-4.3687,-4.3727,-4.3727,-4.373,-4.3749,-4.3742,-4.3726,-4.3734,-4.3546,-4.3725,-4.3723,-4.3723,-4.3722,-4.3722,-4.2871,-4.2931,-4.2997,-4.3078,-4.3129,-4.3188,-4.3249,-4.329,-4.3363,-4.3453,-4.3467,-4.3561,-4.3628,-4.374,-4.3784,-4.3858,-4.3841,-4.3869,-4.3875,-4.3881,-4.3884,-4.3716,-4.3873,-4.3873,-4.3873,-4.3873,-4.3872,0,-4.3009,-4.3052,-4.3127,-4.3214,-4.3279,-4.3275,-4.3345,-4.3398,-4.348,-4.3543,-4.3612,-4.3713,-4.3796,-4.385,-4.3934,-4.3983,-4.3986,-4.4004,-4.4,-4.4009,-4.3895,-4.3869,-4.4001,-4.4001,-4.4001,-4.4001,-4.4001,-4.4001,-4.3088,-4.319,-4.3214,-4.3341,-4.3384,-4.3476,-4.3516,-4.3571,-4.3621,-4.3733,-4.3803,-4.3838,-4.3897,-4.3986,-4.4062,-4.4076,-4.4106,-4.4126,-4.4139,-4.403,-4.4017,-4.4004,-4.398,-4.4133,-4.4133,-4.4246,-4.4247,-4.4248]},{"header":{"parameterUnit":"m.s-1","parameterCategory":1,"la1":30.2991,"la2":30.254,"lo1":-89.0895,"lo2":-89.0444,"dy":0.0017,"dx":0.0017,"nx":28,"ny":28,"refTime":"2023-09-05T09:00:00:Z","depth":0,"parameterNumber":3,"parameterNumberName":"V-component_of_WINDS"},"data":[0,0,0,0,0,0,0,0,0,0,0,0,0,0,0,0,0,0,0,0,0,0,0,0,0,0,0,0,0,0,0,0,0,0,0,0,0,0,0,0,0,0,0,0,0,0,0,0,0,0,0,0,0,0,0,0,0,0,2.5655,2.5655,0,2.5697,2.5697,2.5698,2.573,2.573,2.5731,2.5731,2.5772,2.5773,2.5773,0,0,0,0,0,0,0,0,0,0,0,0,0,2.5601,2.5602,2.5655,2.5655,2.5656,2.5697,2.5697,2.5698,2.573,2.573,2.5731,2.5731,2.5772,2.5772,2.5773,0,0,0,0,0,0,0,0,0,0,0,0,0,2.5632,2.5602,2.5655,2.5677,2.5679,2.5697,2.5697,2.5698,2.573,2.573,2.5731,2.5731,2.5771,2.5772,2.5774,2.5772,0,0,2.5777,2.5778,0,0,0,0,0,0,0,0,2.563,2.5634,2.5673,2.5675,2.5678,2.5709,2.5694,2.5723,2.573,2.5711,2.5731,2.5731,2.575,2.5753,2.576,2.5774,2.5775,2.5777,2.5778,2.5779,2.5779,0,0,0,0,0,0,0,2.5628,2.5632,2.5671,2.5674,2.5677,2.5684,2.5689,2.5699,2.5727,2.5712,2.5715,2.5719,2.5752,2.5759,2.5761,2.5776,2.5777,2.5778,2.5779,2.578,2.5791,2.579,0,0,0,0,0,0,2.5623,2.563,2.567,2.5673,2.5655,2.5685,2.569,2.5698,2.5727,2.5732,2.5719,2.5721,2.5757,2.576,2.5763,2.5763,2.5779,2.578,2.578,2.5791,2.5791,2.579,0,0,0,0,0,0,2.5621,2.5626,2.5668,2.5652,2.5658,2.5685,2.5694,2.5699,2.5706,2.5732,2.5737,2.5721,2.5757,2.5761,2.577,2.5764,2.578,2.5781,2.5792,2.5791,2.579,2.5762,0,0,0,0,0,0,2.562,2.5625,2.5625,2.5652,2.5659,2.5675,2.5694,2.5699,2.5708,2.5711,2.5736,2.574,2.5758,2.5768,2.5771,2.5766,2.5782,2.5792,2.5791,2.5791,2.5763,2.576,2.5758,0,0,0,0,0,2.5618,2.5615,2.5625,2.5629,2.5659,2.5674,2.5678,2.5699,2.5708,2.5708,2.5725,2.5739,2.5765,2.5768,2.5772,2.5768,2.5793,2.5792,2.5791,2.5765,2.5761,2.5758,0,0,0,0,0,0,2.5586,2.5619,2.563,2.5636,2.5652,2.568,2.568,2.5694,2.5708,2.571,2.5735,2.574,2.5746,2.5758,2.5761,2.5768,2.5781,2.578,2.5759,2.5756,2.5753,2.575,2.5783,0,0,0,0,0,2.5579,2.5589,2.5618,2.562,2.5628,2.5652,2.566,2.5675,2.5692,2.5699,2.5716,2.5732,2.5744,2.5751,2.5763,2.5766,2.5771,2.5765,2.5762,2.576,2.5759,2.5761,2.5759,2.5787,2.5787,2.5787,0,0,2.5566,2.5586,2.559,2.5614,2.5628,2.5638,2.5658,2.5667,2.5674,2.57,2.5709,2.5723,2.5742,2.5748,2.5751,2.5758,2.5753,2.5759,2.5756,2.5757,2.576,2.5757,2.5755,2.5786,2.5786,2.5787,0,0,2.5547,2.5563,2.5567,2.5581,2.5602,2.5619,2.562,2.5646,2.5656,2.5666,2.5686,2.5695,2.5714,2.5727,2.5736,2.5723,2.5737,2.5727,2.5711,2.5714,2.5711,2.5709,2.5704,2.5702,2.5726,2.5726,2.5726,0,2.5527,2.5543,2.5566,2.5574,2.5584,2.561,2.5613,2.5626,2.565,2.5656,2.5664,2.569,2.5705,2.5714,2.5711,2.5717,2.5719,2.5723,2.571,2.5708,2.5707,2.5702,2.57,2.5724,2.5725,2.5725,2.5725,0,2.5518,2.5528,2.5528,2.5552,2.5562,2.5568,2.5592,2.56,2.5614,2.563,2.564,2.5659,2.5675,2.5679,2.5692,2.569,2.5694,2.5705,2.5718,2.5702,2.5698,2.5697,2.5722,2.5723,2.5723,2.5724,0,0,2.5478,2.5516,2.5515,2.5526,2.5553,2.5561,2.5568,2.5585,2.5591,2.5607,2.5613,2.563,2.5641,2.5652,2.5667,2.5669,2.5658,2.5681,2.5682,2.5676,2.5656,2.5646,2.5644,2.5668,2.5668,2.5667,2.5654,0,2.5462,2.5476,2.5499,2.5506,2.5515,2.554,2.5546,2.5563,2.5578,2.5589,2.5606,2.5617,2.5631,2.5638,2.5641,2.5658,2.5654,2.566,2.5673,2.5673,2.5666,2.5642,2.5631,2.5617,2.5653,2.5652,2.5652,0,2.5445,2.5461,2.5469,2.5495,2.55,2.5505,2.5523,2.5533,2.5552,2.5563,2.5576,2.5593,2.5602,2.5614,2.5626,2.563,2.5637,2.5646,2.5647,2.5648,2.5661,2.5641,2.5614,2.5611,2.565,2.565,2.565,0,2.5414,2.5438,2.5445,2.5454,2.5485,2.5488,2.5501,2.5522,2.5531,2.5546,2.5552,2.5568,2.5577,2.5589,2.561,2.5617,2.562,2.5634,2.5629,2.5628,2.5627,2.5626,2.5599,2.5633,2.5633,2.5633,2.5633,0,2.5394,2.5397,2.5432,2.5437,2.5442,2.5468,2.5472,2.5487,2.5505,2.5513,2.5536,2.5543,2.5571,2.5581,2.5598,2.5605,2.5609,2.5618,2.5622,2.5615,2.5614,2.5619,2.562,2.5632,2.5632,2.5633,2.5633,0,2.536,2.5383,2.5393,2.5422,2.543,2.5432,2.5457,2.5462,2.548,2.5489,2.5493,2.552,2.5533,2.5556,2.5576,2.5587,2.5591,2.5599,2.5584,2.5587,2.5579,2.5579,2.5554,2.5551,2.5587,2.5587,2.5587,0,2.5344,2.5348,2.5378,2.5385,2.5397,2.5409,2.5418,2.5444,2.5453,2.5476,2.5479,2.5494,2.5508,2.5528,2.5549,2.5564,2.5572,2.5562,2.5574,2.5567,2.5571,2.557,2.557,2.5558,2.5558,2.5557,2.5557,0,2.5315,2.5326,2.5339,2.5357,2.5368,2.5383,2.5399,2.5403,2.5433,2.5442,2.5456,2.5467,2.5487,2.5502,2.5521,2.5534,2.555,2.5554,2.5553,2.5545,2.5536,2.554,2.5575,2.5553,2.5554,2.5554,2.5554,2.5554,2.5289,2.5293,2.5315,2.5329,2.5344,2.5359,2.5366,2.5384,2.5397,2.5416,2.543,2.5444,2.5464,2.5491,2.5503,2.5513,2.5521,2.552,2.552,2.5519,2.5516,2.5536,2.5517,2.5517,2.5517,2.5517,2.5518,0,2.526,2.5275,2.5288,2.531,2.5321,2.5337,2.5356,2.5364,2.5375,2.5393,2.5406,2.5423,2.5438,2.546,2.5477,2.5481,2.5489,2.5484,2.5483,2.5486,2.5509,2.5507,2.5477,2.5477,2.5477,2.5477,2.5477,2.5477,2.5246,2.5254,2.5268,2.5284,2.53,2.5313,2.5323,2.5336,2.5351,2.5368,2.5381,2.5396,2.5416,2.5434,2.5449,2.5455,2.5459,2.5452,2.5461,2.5481,2.5485,2.5488,2.5487,2.5453,2.5453,2.5438,2.5437,2.5437]}]]